sat.trackr.live / text

‹ back to catalog

STARLINK-3257

NORAD 50203 · 2021-125AZ

PAYLOAD ACTIVE UNKNOWN

§ Identity

Operator
Country
US
Launch date
2021-12-18
Launch site
AFWTR
Launch vehicle
Mass (kg)
RCS (m²)

Purposes: comms

External: N2YO · Heavens-Above · Gunter

§ Orbital elements

Epoch: 2026-09-13T00:04:21.015264Z

Period
94.01 min
Inclination
53.1592°
Eccentricity
0.0001259
Mean motion
15.31704552 rev/d
Perigee alt
469.9 km
Apogee alt
471.6 km
Semi-major
6,848.9 km
B*
1.8168e-5
RAAN
107.7536°
Arg perigee
81.9803°
Mean anomaly
278.1341°
Rev number
26,521

§ Raw data

STARLINK-32571 50203U 21125AZ  26256.00302101  .00000199  00000+0  18168-4 0  99952 50203  53.1592 107.7536 0001259  81.9803 278.1341 15.31704552265217

JSON: /api/v1/satellites/50203 · /tle

For live sub-satellite position, see the globe view (requires WebGL).

§ Visibility from observer

Set your observer location to see the next 7 days of passes ≥ 10°. The values pass through the URL so the page stays shareable.

No JS? Fill the form by hand. The geolocation button needs JavaScript.